• Join FlightAware (Why Join?)
  • Login
  • US Flag GB Flag 
05:32 EDT


 

Airport Tracker/Info


-or-


 

Live Flight TrackerFlight Track Log ✈ ASQ4577 ✈ 14-May-2013 ✈ KIAH - KDFW

Flight Track Log - Related Links

Times and Time Zones

All times are in EDT time to prevent confusion due to time zone crossing. See the ASQ4577 flight status page for this flight to view local times or setup timezone preferences in your user account.

Time Position Orientation Groundspeed Altitude Reporting Facility
EDT Latitude Longitude Course Direction KTS MPH feet Rate Location/Type
14:10 29.9769 -95.3031 North 173 199 700  Level Houston Center
14:11 30.0456 -95.2947 North 261 300 3,200 1,620 Climbing Houston Center
14:12 30.0917 -95.3078 346° North 259 298 4,000 840 Climbing Houston Center
14:12 30.1167 -95.3153 345° North 267 307 4,100 1,200 Climbing Houston Center
14:13 30.3543 -95.3036 North  Level FlightAware Approximate
14:13 30.1656 -95.3217 354° North 269 310 5,300  Level Houston Center
14:14 30.4474 -95.3000 North  Level FlightAware Approximate
14:14 30.2481 -95.3186 North 294 338 7,600  Level Houston Center
14:15 30.5406 -95.3000 North  Level FlightAware Approximate
14:15 30.3303 -95.3169 North 294 338 10,200  Level Houston Center
14:16 30.4339 -95.3128 North 316 364 11,200 1,140 Climbing Houston Center
14:17 30.5328 -95.3086 North 349 402 12,600 1,380 Climbing Houston Center
14:18 30.6325 -95.3022 North 353 406 14,100 1,260 Climbing Houston Center
14:19 30.7333 -95.2958 North 359 413 15,300 960 Climbing Houston Center
14:20 30.8419 -95.2881 North 378 435 16,200 960 Climbing Houston Center
14:21 30.9533 -95.2806 North 394 453 17,300 960 Climbing Houston Center
14:22 31.0667 -95.2736 North 399 459 18,300 840 Climbing Houston Center
14:23 31.1931 -95.2667 North 403 464 19,000 300 Climbing Fort Worth Center
14:24 31.3036 -95.2592 North 414 476 19,000  Level Fort Worth Center
14:25 31.4147 -95.2981 343° North 420 483 19,000  Level Fort Worth Center
14:26 31.5083 -95.4006 317° Northwest 398 458 19,000  Level Fort Worth Center
14:27 31.5892 -95.4964 315° West 401 461 19,000  Level Fort Worth Center
14:28 31.6658 -95.5925 313° West 414 476 19,000  Level Fort Worth Center
14:29 31.7400 -95.6814 314° West 414 476 19,000  Level Fort Worth Center
14:30 31.8208 -95.7800 314° West 414 476 19,000  Level Fort Worth Center
14:31 31.9014 -95.8767 314° West 414 476 19,000  Level Fort Worth Center
14:32 31.9817 -95.9708 315° West 414 476 19,000  Level Fort Worth Center
14:33 32.0664 -96.0725 315° West 422 486 19,000  Level Fort Worth Center
14:34 32.1489 -96.1694 315° West 424 488 19,000 -600 Level Fort Worth Center
14:35 32.2353 -96.2786 313° West 410 472 17,900 -1,200 Descending Fort Worth Center
14:36 32.3133 -96.3711 315° West 399 459 16,700 -1,380 Descending Fort Worth Center
14:37 32.3872 -96.4589 315° West 382 440 15,200 -1,500 Descending Fort Worth Center
14:38 32.4544 -96.5369 316° Northwest 352 405 13,700 -1,740 Descending Fort Worth Center
14:39 32.5197 -96.6150 315° West 335 386 11,800 -1,320 Descending Fort Worth Center
14:40 32.5872 -96.6958 315° West 335 386 11,100 -420 Descending Fort Worth Center
14:41 32.6439 -96.7644 314° West 346 398 11,000 -180 Descending Fort Worth Center
14:41 32.6667 -96.8000 307° West 296 341 10,900 -120 Descending Dallas / Fort Worth TRACON
14:42 32.7333 -96.8667 320° Northwest 254 292 10,900  Level Dallas / Fort Worth TRACON
14:43 32.8000 -96.9000 337° Northwest 275 316 10,900 -240 Level Dallas / Fort Worth TRACON
14:44 32.8667 -96.9000 360° North 276 318 10,500 -840 Descending Dallas / Fort Worth TRACON
14:45 32.9333 -96.9000 360° North 239 275 9,300 -1,380 Descending Dallas / Fort Worth TRACON
14:46 33.0000 -96.9000 360° North 245 282 7,800 -1,500 Descending Dallas / Fort Worth TRACON
14:47 33.0667 -96.9000 360° North 240 276 6,500 -1,620 Descending Dallas / Fort Worth TRACON
14:48 33.0833 -96.9667 287° West 210 242 4,500 -1,740 Descending Dallas / Fort Worth TRACON
14:49 33.0667 -97.0167 248° West 193 222 3,100 -1,140 Descending Dallas / Fort Worth TRACON
14:50 33.0167 -97.0167 180° South 156 180 2,500 -660 Descending Dallas / Fort Worth TRACON